DW9029 Weather Reports


time (UTC)temp
F
wind
direction
speed
knots
gust
knots
rain 1hr
in
rain 24hr
in
rain mn
in
humidity
%
barometer
mb
20260507144905 72 223 4.3 10.4 0.00 0.00 0.00 44 1008.2
20260507144404 72 245 5.2 10.4 0.00 0.00 0.00 45 1008.2
20260507143405 71 195 4.3 13.9 0.00 0.00 0.00 47 1008.2
20260507141905 71 243 4.3 11.3 0.00 0.00 0.00 50 1008.5
20260507141405 70 217 7.8 13.0 0.00 0.00 0.00 51 1008.5
20260507140905 71 197 7.8 11.3 0.00 0.00 0.00 51 1008.6
20260507140406 71 215 5.2 13.0 0.00 0.00 0.00 50 1008.6
20260507134405 71 199 5.2 10.4 0.00 0.00 0.00 52 1008.7
20260507133905 71 218 7.8 12.2 0.00 0.00 0.00 51 1008.8
20260507133405 70 217 5.2 12.2 0.00 0.00 0.00 52 1008.9
20260507131906 70 180 4.3 10.4 0.00 0.00 0.00 52 1009.0
20260507131405 70 227 7.8 13.0 0.00 0.00 0.00 52 1009.0
20260507130404 70 205 5.2 12.2 0.00 0.00 0.00 53 1009.0
20260507124905 70 192 7.8 13.9 0.00 0.00 0.00 52 1009.1
20260507124405 70 242 5.2 10.4 0.00 0.00 0.00 53 1009.1
20260507123904 70 184 7.0 14.8 0.00 0.00 0.00 53 1009.3
20260507123404 70 226 5.2 12.2 0.00 0.00 0.00 53 1009.2
20260507121904 70 212 4.3 7.8 0.00 0.00 0.00 55 1009.4
20260507121405 70 185 5.2 10.4 0.00 0.00 0.00 56 1009.4
20260507120905 69 232 6.1 14.8 0.00 0.00 0.00 56 1009.4
20260507120405 71 216 7.0 13.0 0.00 0.00 0.00 55 1009.5
20260507114905 71 205 5.2 7.8 0.00 0.00 0.00 54 1009.6
20260507114404 71 189 6.1 10.4 0.00 0.00 0.00 53 1009.6
20260507113904 70 180 5.2 10.4 0.00 0.00 0.00 53 1009.7
20260507113404 70 202 1.7 11.3 0.00 0.00 0.00 55 1009.6
20260507111905 69 189 5.2 12.2 0.00 0.00 0.00 57 1009.8
20260507111404 69 183 6.1 11.3 0.00 0.00 0.00 57 1009.8
20260507110905 69 200 5.2 8.7 0.00 0.00 0.00 59 1009.9
20260507110405 69 213 5.2 12.2 0.00 0.00 0.00 59 1009.8
20260507103405 67 199 5.2 10.4 0.00 0.00 0.00 63 1009.9
20260507101904 67 211 7.0 11.3 0.00 0.00 0.00 64 1010.1
20260507101405 67 160 0.9 11.3 0.00 0.00 0.00 65 1010.1
20260507100905 68 185 3.5 10.4 0.00 0.00 0.00 64 1010.1
20260507094905 67 200 1.7 8.7 0.00 0.00 0.00 67 1010.3
20260507094405 66 148 4.3 13.9 0.00 0.00 0.00 66 1010.3
20260507093904 66 137 3.5 13.0 0.00 0.00 0.00 67 1010.3
20260507091905 66 172 2.6 7.8 0.00 0.00 0.00 71 1010.2
20260507091404 65 179 5.2 10.4 0.00 0.00 0.00 71 1010.3
20260507090905 65 185 6.1 13.0 0.00 0.00 0.00 71 1010.3
20260507090405 65 192 6.1 12.2 0.00 0.00 0.00 70 1010.3
20260507084905 65 174 4.3 10.4 0.00 0.00 0.00 73 1010.3
20260507084405 64 164 3.5 11.3 0.00 0.00 0.00 74 1010.3
20260507083404 64 162 5.2 13.0 0.00 0.00 0.00 74 1010.2
20260507081905 63 183 3.5 8.7 0.00 0.00 0.00 75 1010.1
20260507080904 63 160 4.3 7.0 0.00 0.00 0.00 75 1010.1
20260507080404 63 187 5.2 8.7 0.00 0.00 0.00 76 1010.1
20260507074905 62 125 2.6 7.8 0.00 0.00 0.00 77 1010.0
20260507074405 62 133 4.3 8.7 0.00 0.00 0.00 77 1010.0
20260507073904 61 155 1.7 6.1 0.00 0.00 0.00 78 1009.9
20260507073404 60 131 2.6 7.0 0.00 0.00 0.00 78 1009.9
20260507071405 60 129 2.6 5.2 0.00 0.00 0.00 78 1009.7
20260507070905 60 109 1.7 4.3 0.00 0.00 0.00 78 1009.7
20260507070405 60 119 0.9 2.6 0.00 0.00 0.00 78 1009.7
20260507064405 58 129 0.0 0.0 0.00 0.00 0.00 80 1009.6
20260507063405 58 128 0.0 0.9 0.00 0.00 0.00 81 1009.6
20260507061904 58 127 0.0 0.0 0.00 0.00 0.00 80 1009.5
20260507061404 57 163 0.0 0.0 0.00 0.00 0.00 81 1009.4
20260507060905 57 163 0.0 0.0 0.00 0.00 0.00 82 1009.4
20260507054905 56 173 0.0 0.0 0.00 0.00 0.00 83 1009.1
20260507054404 56 174 0.0 0.0 0.00 0.00 0.00 83 1009.1
20260507053905 56 174 0.0 0.0 0.00 0.00 0.00 83 1009.1
20260507053405 56 174 0.0 0.0 0.00 0.00 0.00 83 1009.0
20260507051905 56 175 0.0 0.0 0.00 0.00 0.00 83 1009.1
20260507050904 56 175 0.0 0.0 0.00 0.00 0.00 83 1009.0
20260507044905 56 175 0.0 0.0 0.00 0.00 0.00 84 1008.8
20260507044404 56 175 0.0 0.0 0.00 0.00 0.00 84 1008.8
20260507043904 56 175 0.0 0.0 0.00 0.00 0.00 84 1008.7
20260507043405 56 175 0.0 0.0 0.00 0.00 0.00 84 1008.7
20260507041904 56 175 0.0 0.0 0.00 0.00 0.00 83 1008.6
20260507041405 56 175 0.0 0.0 0.00 0.00 0.00 83 1008.4
20260507034905 57 175 0.0 0.0 0.00 0.00 0.00 81 1008.4
20260507034404 57 181 0.0 0.0 0.00 0.00 0.00 81 1008.3
20260507033905 57 207 0.0 0.0 0.00 0.00 0.00 80 1008.3
20260507031904 57 207 0.0 0.0 0.00 0.00 0.00 80 1008.4
20260507031405 57 207 0.0 0.0 0.00 0.00 0.00 79 1008.4
20260507030905 57 207 0.0 0.0 0.00 0.00 0.00 79 1008.4
20260507030405 57 207 0.0 0.0 0.00 0.00 0.00 79 1008.3
20260507024905 58 207 0.0 0.0 0.00 0.00 0.00 79 1008.2
20260507023905 58 207 0.0 0.0 0.00 0.00 0.00 78 1008.2
20260507021904 58 188 0.0 0.0 0.00 0.00 0.00 78 1008.1
20260507021404 58 187 0.0 2.6 0.00 0.00 0.00 78 1008.1
20260507020405 58 181 0.0 2.6 0.00 0.00 0.00 78 1008.1
20260507014905 58 182 0.9 4.3 0.00 0.00 0.00 77 1008.2
20260507014404 58 177 0.9 2.6 0.00 0.00 0.00 77 1008.2
20260507013904 58 179 0.0 2.6 0.00 0.00 0.00 77 1008.3
20260507011905 58 181 0.9 2.6 0.00 0.00 0.00 77 1008.4
20260507011404 58 178 0.0 0.0 0.00 0.00 0.00 77 1008.5
20260507010404 58 167 0.9 2.6 0.00 0.00 0.00 77 1008.5
20260507003905 58 182 0.0 0.0 0.00 0.00 0.00 76 1008.6
20260507003405 58 183 0.0 2.6 0.00 0.00 0.00 76 1008.6
20260507001904 58 174 0.9 6.1 0.00 0.00 0.00 76 1008.7
20260507001405 58 184 0.9 5.2 0.00 0.00 0.00 76 1008.8
20260507000406 59 186 1.7 6.1 0.00 0.00 0.00 76 1008.8
20260506233905 59 184 0.9 4.3 0.00 0.00 0.00 76 1008.9
20260506233405 59 186 0.9 2.6 0.00 0.00 0.00 77 1009.0
20260506231904 60 175 0.0 0.0 0.00 0.00 0.00 76 1009.0
20260506231404 60 175 0.0 0.0 0.00 0.00 0.00 76 1008.9
20260506230905 60 175 0.0 0.0 0.00 0.00 0.00 75 1009.0
20260506230405 60 178 0.0 2.6 0.00 0.00 0.00 74 1008.9
20260506224405 60 217 0.0 1.7 0.00 0.00 0.00 73 1009.0
20260506223405 60 182 0.0 4.3 0.00 0.00 0.00 71 1009.0
20260506221905 60 188 1.7 4.3 0.00 0.00 0.00 68 1009.0
20260506221405 60 170 0.0 2.6 0.00 0.00 0.00 67 1009.0
20260506220905 61 174 0.0 1.7 0.00 0.00 0.00 66 1008.9
20260506220404 61 192 0.0 2.6 0.00 0.00 0.00 66 1008.8
20260506214904 61 176 0.0 2.6 0.00 0.00 0.00 64 1008.9
20260506214405 61 166 0.0 1.7 0.00 0.00 0.00 63 1008.9
20260506213904 62 171 0.0 2.6 0.00 0.00 0.00 62 1008.9
20260506213405 63 162 0.9 4.3 0.00 0.00 0.00 60 1008.8
20260506211905 64 192 0.9 6.1 0.00 0.00 0.00 57 1008.6
20260506210904 64 230 0.0 6.1 0.00 0.00 0.00 57 1008.5
20260506210404 64 224 0.9 7.8 0.00 0.00 0.00 56 1008.4
20260506204904 65 257 1.7 7.0 0.00 0.00 0.00 56 1008.1
20260506204405 65 241 2.6 7.8 0.00 0.00 0.00 55 1008.1
20260506203905 65 249 2.6 6.1 0.00 0.00 0.00 55 1007.9
20260506203404 65 250 4.3 8.7 0.00 0.00 0.00 55 1007.9
20260506201904 66 242 1.7 7.0 0.00 0.00 0.00 54 1007.9
20260506201404 66 256 1.7 8.7 0.00 0.00 0.00 54 1007.9
20260506200905 66 228 3.5 7.8 0.00 0.00 0.00 53 1007.9
20260506200405 67 259 2.6 7.0 0.00 0.00 0.00 53 1007.8
20260506194905 68 231 2.6 7.8 0.00 0.00 0.00 51 1007.7
20260506194404 68 231 2.6 7.8 0.00 0.00 0.00 50 1007.6
20260506193904 68 245 1.7 4.3 0.00 0.00 0.00 50 1007.5
20260506193405 68 234 2.6 8.7 0.00 0.00 0.00 49 1007.4
20260506191904 69 247 1.7 7.0 0.00 0.00 0.00 49 1007.3
20260506191405 69 262 1.7 6.1 0.00 0.00 0.00 48 1007.2
20260506190905 69 250 0.9 5.2 0.00 0.00 0.00 48 1007.2
20260506190405 69 250 5.2 10.4 0.00 0.00 0.00 48 1007.1
20260506184905 70 251 3.5 10.4 0.00 0.00 0.00 46 1007.0
20260506184404 71 253 5.2 11.3 0.00 0.00 0.00 46 1007.0
20260506183405 71 255 7.8 12.2 0.00 0.00 0.00 45 1007.0
20260506181905 72 222 4.3 10.4 0.00 0.00 0.00 45 1007.0
20260506181404 72 236 3.5 7.8 0.00 0.00 0.00 45 1006.9
20260506180904 72 253 2.6 11.3 0.00 0.00 0.00 45 1006.9
20260506180405 72 241 6.1 13.0 0.00 0.00 0.00 43 1007.0
20260506174904 73 240 2.6 10.4 0.00 0.00 0.00 40 1007.0
20260506174404 73 217 4.3 10.4 0.00 0.00 0.00 40 1007.0
20260506173404 74 239 4.3 10.4 0.00 0.00 0.00 39 1007.0
20260506171905 74 208 3.5 7.0 0.00 0.00 0.00 39 1007.2
20260506171405 74 211 5.2 10.4 0.00 0.00 0.00 39 1007.2
20260506170405 75 217 3.5 12.2 0.00 0.00 0.00 39 1007.2
20260506163904 75 230 4.3 10.4 0.00 0.00 0.00 38 1007.3
20260506163404 75 229 5.2 13.0 0.00 0.00 0.00 39 1007.3
20260506161905 75 184 6.1 10.4 0.00 0.00 0.00 39 1007.3
20260506154904 75 141 2.6 7.8 0.00 0.00 0.00 35 1007.4
20260506154404 76 139 6.1 11.3 0.00 0.00 0.00 35 1007.5
20260506153904 76 124 4.3 11.3 0.00 0.00 0.00 35 1007.5
20260506151904 75 132 3.5 7.8 0.00 0.00 0.00 36 1007.8
20260506151405 75 42 1.7 4.3 0.00 0.00 0.00 36 1007.9
20260506150905 75 133 2.6 7.8 0.00 0.00 0.00 36 1008.0
20260506150404 75 77 0.9 8.7 0.00 0.00 0.00 36 1008.1